BEIDOU-3 IGSO-3

Last updated on Jan. 18, 2020, 4:38 a.m. UTC

1 44709U 19073A   20016.72757603 -.00000187  00000-0  00000-0 0  9997
2 44709  58.6212 305.4606 0023936 182.4579 357.0540  1.00277210   951
UTC
Height (km)
Latitude
Longitude
Inclination
Orbital Period
UTC large
Height (km)
Speed (km/s)
/
Latitude / Longitude
Inclination (degrees)
Orbital Period (minutes)
Azimuth
Elevation
Range (km)
Doppler Factor
iOS Compass Heading
iOS Angle

Next 30 passes for location: Hong Kong

Rise time Rise Azimuth (degrees) Set time Set Azimuth (degrees) Duration Max altitude (degrees)

No matching passes for this satellites